Location: Paris
(48.6709°N, 2.3750°E)
Time: 04:46:28
(UTC+02:00)

CAS-4B - Visible Passes

Search period start: 02 July 2022 00:00
Search period end: 12 July 2022 00:00
Orbit: 523 x 536 km, 43.0° (Epoch: 01 July)

Date Brightness Start Highest point End Pass type
(mag) Time Alt. Az. Time Alt. Az. Time Alt. Az.
02 Jul ? 02:58:20 11° SE 02:58:20 11° SE 02:58:42 10° SE visible
02 Jul ? 04:33:31 14° SW 04:36:17 29° SSE 04:39:50 10° ESE visible
03 Jul ? 02:46:07 12° SE 02:46:07 12° SE 02:46:40 10° ESE visible
03 Jul ? 04:21:19 17° SW 04:23:46 31° SSE 04:27:22 10° ESE visible
04 Jul ? 02:33:54 12° ESE 02:33:54 12° ESE 02:34:28 10° ESE visible
04 Jul ? 04:09:06 20° SW 04:11:15 33° S 04:14:54 10° ESE visible
05 Jul ? 02:21:42 12° ESE 02:21:42 12° ESE 02:22:11 10° ESE visible
05 Jul ? 03:56:53 23° SW 03:58:43 35° S 04:02:25 10° ESE visible
06 Jul ? 02:09:30 11° ESE 02:09:30 11° ESE 02:09:50 10° ESE visible
06 Jul ? 03:44:42 26° SW 03:46:11 36° S 03:49:55 10° ESE visible
07 Jul ? 01:57:23 10° ESE 01:57:23 10° ESE 01:57:26 10° ESE visible
07 Jul ? 03:32:35 30° SSW 03:33:40 37° S 03:37:24 10° ESE visible
07 Jul ? 05:09:40 10° WSW 05:13:10 28° SSW 05:16:40 10° SE visible
08 Jul ? 03:20:35 35° SSW 03:21:08 37° S 03:24:52 10° ESE visible
08 Jul ? 04:57:14 10° WSW 05:00:37 26° SSW 05:04:00 10° SE visible
09 Jul ? 03:08:49 36° S 03:08:49 36° S 03:12:19 10° ESE visible
09 Jul ? 04:44:47 10° WSW 04:48:03 24° SSW 04:51:18 10° SE visible
10 Jul ? 02:57:33 26° SE 02:57:33 26° SE 02:59:46 10° ESE visible
10 Jul ? 04:32:50 12° WSW 04:35:28 21° SSW 04:38:33 10° SSE visible
10 Jul ? 23:22:25 10° S 23:22:52 11° S 23:22:52 11° S visible
11 Jul ? 04:22:33 19° SSW 04:22:52 19° SSW 04:25:46 10° SSE visible
11 Jul ? 23:09:28 10° SSW 23:12:05 17° SSE 23:13:20 15° SE visible
